Location: Le Vaud
(46.4779°N, 6.2346°E)
Time: 09:57:48
(UTC+00:00)

Cosmos 407 Rocket - Pass Details

Date: 18 February 2020
Orbit: 744 x 786 km, 74.0° (Epoch: 09 April)

Event Time Altitude Azimuth Distance (km) Brightness Sun altitude
Rises 05:49:04 0° 224° (SW) 3,262 6.4 -8.5°
Reaches altitude 10° 05:51:37 10° 233° (SW) 2,334 5.6 -8.1°
Maximum altitude 05:56:32 37° 300° (WNW) 1,195 4.1 -7.3°
Drops below altitude 10° 06:01:25 10° 8° (N) 2,327 6.0 -6.4°
Sets 06:03:59 0° 17° (NNE) 3,251 6.8 -6.0°
